Content
SEND FEEDBACK

Daily
Averages
Monthly
Summary
United States of America

SAULT STE. MARIE, MICHIGAN


Home > North America > United States > Michigan
Elevation: 699 feet     Latitude: 46 28N     Longitude: 084 22W

WEATHER
 
SELECT A DAY
Number of Records: 217,492;   Date Range: 1/1/95 - 10/1/14
 
SHARE

PRINT THIS DATA

[ ← Previous Day ]
WEATHER ALMANAC - FEBRUARY 3, 2013
[ Next Day → ]
[ °C ]   °F
Weather ElementAverageHighLow
Temperature10.6 °F17.1 °F (2:39 pm)1 °F (3:55 am)
Dewpoint4.3 °F10 °F (1:55 pm)-4 °F (3:55 am)
Humidity76.1 %85 % (5:50 pm)62 % (2:55 pm)
Barometer29.81 in29.95 in (1:55 am)29.70 in (1:31 pm)
Wind Speed7 mph16.1 mph (4:18 pm)
Wind Gust28.8 mph (4:18 pm)
Weather ElementAverage
Visibility3.2 mi
Wind DirectionS (180 °)

Weather ElementTotal
Precipitation0.35 in
Heating Degree Days56 (Base 65)
Averaged from 73 records on February 3, 2013
WEATHER CONDITIONS BREAKOUT
WIND DIRECTION BREAKOUT
WEATHER BY HOUR - FEBRUARY 3, 2013
[ °C ]   °F
Local TimeTemperatureDewpointHumidityBarometerVisibilityWind DirectionWind SpeedGust SpeedPrecipitationEventsConditions
1:55 AM3.9 °F-0.9 °F80 %29.95 in10.0 miSouth (190°)5.8 mphOvercast
2:55 AM1.9 °F-2.9 °F80 %29.94 in10.0 miSouth (190°)3.5 mphPartly Cloudy
3:55 AM1.0 °F-4.0 °F79 %29.93 in10.0 miCalmMostly Cloudy
4:55 AM3.9 °F-2.0 °F76 %29.90 in10.0 miSSW (210°)3.5 mphOvercast
5:55 AM1.9 °F-4.0 °F76 %29.88 in10.0 miEast (80°)3.5 mphOvercast
6:55 AM3.0 °F-2.0 °F80 %29.87 in10.0 miEast (80°)3.5 mphOvercast
7:48 AM3.9 °F-0.9 °F80 %29.81 in3.0 miENE (70°)4.6 mph0.00 inSnowLight Snow
7:55 AM3.9 °F-0.9 °F80 %29.86 in2.5 miENE (70°)4.6 mph0.00 inSnowLight Snow
8:03 AM3.9 °F-0.9 °F80 %29.81 in4.0 miENE (60°)3.5 mph0.00 inSnowLight Snow
8:55 AM3.9 °F0.0 °F84 %29.85 in1.8 miCalm0.00 inSnowLight Snow
9:14 AM5.0 °F0.0 °F80 %29.80 in2.0 miCalm0.01 inSnowLight Snow
9:23 AM5.0 °F0.0 °F80 %29.79 in3.0 miCalm0.01 inSnowLight Snow
9:36 AM6.1 °F1.0 °F80 %29.79 in4.0 miCalm0.01 inSnowLight Snow
9:55 AM6.1 °F1.9 °F83 %29.83 in2.5 miCalm0.01 inSnowLight Snow
9:58 AM6.1 °F1.9 °F83 %29.78 in3.0 miCalm0.00 inSnowLight Snow
10:21 AM7.0 °F1.9 °F80 %29.78 in1.8 miCalm0.00 inSnowLight Snow
10:28 AM7.0 °F3.0 °F84 %29.78 in1.0 miCalm0.00 inSnowLight Snow
10:40 AM8.1 °F3.0 °F80 %29.77 in0.8 miCalm0.01 inSnowLight Snow
10:55 AM8.1 °F3.9 °F83 %29.81 in0.8 miCalm0.01 inSnowLight Snow
11:04 AM9.0 °F3.9 °F80 %29.75 in1.0 miSouth (170°)3.5 mph0.00 inSnowLight Snow
11:16 AM10.0 °F3.9 °F76 %29.75 in2.5 miSouth (180°)5.8 mph0.00 inSnowLight Snow
11:28 AM10.0 °F5.0 °F80 %29.75 in2.5 miSSE (160°)4.6 mph0.01 inSnowLight Snow
11:55 AM10.9 °F5.0 °F77 %29.79 in5.0 miSSW (200°)6.9 mph0.01 inHaze
12:22 PM12.9 °F6.1 °F74 %29.72 in3.0 miSouth (190°)8.1 mphHaze
12:55 PM14.0 °F6.1 °F71 %29.76 in9.0 miSSW (210°)13.8 mph19.6 mphMostly Cloudy
1:31 PM14.0 °F7.0 °F74 %29.70 in1.8 miSSW (200°)9.2 mph0.00 inSnowLight Snow
1:46 PM15.1 °F8.1 °F74 %29.70 in0.8 miSSW (210°)6.9 mph0.00 inSnowLight Snow
1:55 PM15.1 °F10.0 °F80 %29.75 in0.8 miSW (230°)6.9 mph0.01 inSnowLight Snow
2:39 PM17.1 °F10.0 °F74 %29.70 in1.8 miWNW (290°)11.5 mph19.6 mph0.01 inSnowLight Snow
2:42 PM17.1 °F8.1 °F68 %29.70 in4.0 miWNW (300°)8.1 mph19.6 mph0.01 inSnowLight Snow
2:55 PM17.1 °F6.1 °F62 %29.75 in10.0 miNW (320°)12.7 mph0.01 inOvercast
3:06 PM16.0 °F7.0 °F68 %29.71 in2.0 miNW (310°)10.4 mph0.00 inSnowLight Snow
3:13 PM16.0 °F8.1 °F71 %29.72 in1.5 miNNW (330°)11.5 mph0.00 inSnowLight Snow
3:18 PM16.0 °F8.1 °F71 %29.72 in3.0 miNNW (330°)11.5 mph0.00 inSnowLight Snow
3:33 PM16.0 °F8.1 °F71 %29.73 in1.8 miNW (310°)13.8 mph21.9 mph0.00 inSnowLight Snow
3:41 PM16.0 °F7.0 °F68 %29.73 in2.0 miNW (320°)15.0 mph25.3 mph0.00 inSnowLight Snow
3:55 PM16.0 °F5.0 °F62 %29.78 in4.0 miNW (310°)15.0 mph23.0 mph0.00 inSnowLight Snow
4:18 PM15.1 °F5.0 °F64 %29.75 in2.0 miNW (320°)16.1 mph28.8 mph0.00 inSnowLight Snow
4:26 PM15.1 °F6.1 °F68 %29.75 in2.5 miNNW (330°)11.5 mph21.9 mph0.00 inSnowLight Snow
4:51 PM14.0 °F6.1 °F71 %29.82 in3.0 miNW (320°)12.7 mph23.0 mph0.00 inSnowLight Snow
5:22 PM14.0 °F5.0 °F67 %29.77 in1.8 miNW (320°)13.8 mph20.7 mph0.00 inSnowLight Snow
5:32 PM12.9 °F7.0 °F77 %29.78 in0.5 miNW (320°)9.2 mph0.00 inSnowSnow
5:50 PM12.2 °F8.6 °F85 %29.78 in0.8 miNW (310°)8.1 mph0.01 inSnowLight Snow
5:55 PM12.9 °F8.1 °F81 %29.83 in0.5 miNW (310°)6.9 mph0.02 inSnowSnow
6:13 PM12.9 °F8.1 °F81 %29.79 in2.0 miNW (320°)5.8 mph0.01 inSnowLight Snow
6:17 PM12.0 °F7.0 °F80 %29.80 in4.0 miNW (310°)8.1 mph0.01 inSnowLight Snow
6:27 PM12.9 °F6.1 °F74 %29.80 in1.8 miWNW (290°)11.5 mph18.4 mph0.01 inSnowLight Snow
6:37 PM12.9 °F7.0 °F77 %29.80 in2.0 miWNW (300°)8.1 mph0.02 inSnowLight Snow
6:45 PM12.9 °F6.1 °F74 %29.80 in6.0 miWest (280°)11.5 mph0.02 inSnowLight Snow
6:52 PM12.2 °F5.0 °F73 %29.80 in2.5 miWNW (300°)15.0 mph21.9 mph0.02 inSnowLight Snow
6:55 PM12.9 °F5.0 °F71 %29.85 in1.8 miWNW (300°)15.0 mph23.0 mph0.02 inSnowLight Snow
6:59 PM12.9 °F5.0 °F71 %29.80 in2.0 miWNW (290°)10.4 mph23.0 mph0.00 inSnowLight Snow
7:13 PM12.0 °F7.0 °F80 %29.81 in1.8 miWNW (290°)11.5 mph0.00 inSnowLight Snow
7:33 PM12.9 °F7.0 °F77 %29.81 in3.0 miWNW (300°)8.1 mph0.01 inSnowLight Snow
7:51 PM12.2 °F3.2 °F67 %29.82 in7.0 miWNW (300°)12.7 mph19.6 mph0.01 inSnowLight Snow
7:55 PM12.9 °F5.0 °F71 %29.87 in2.0 miWNW (290°)11.5 mph19.6 mph0.01 inSnowLight Snow
8:10 PM12.9 °F6.1 °F74 %29.82 in7.0 miWNW (290°)10.4 mph17.3 mph0.00 inSnowLight Snow
8:49 PM12.2 °F6.8 °F79 %29.82 in1.8 miWNW (290°)12.7 mph0.00 inSnowLight Snow
8:55 PM12.0 °F6.1 °F77 %29.87 in1.5 miWNW (300°)12.7 mph19.6 mph0.00 inSnowLight Snow
8:58 PM12.0 °F6.1 °F77 %29.82 in3.0 miWNW (300°)10.4 mph18.4 mph0.00 inSnowLight Snow
9:55 PM10.9 °F5.0 °F77 %29.89 in4.0 miNE (50°)6.9 mph0.00 inSnowLight Snow
10:03 PM10.9 °F5.0 °F77 %29.85 in2.5 miNNE (30°)5.8 mph0.00 inSnowLight Snow
10:11 PM10.9 °F5.0 °F77 %29.84 in1.2 miNorth (10°)4.6 mph0.00 inSnowLight Snow
10:27 PM10.0 °F6.1 °F84 %29.85 in0.8 miNNE (20°)4.6 mph0.00 inSnowLight Snow
10:33 PM10.0 °F5.0 °F80 %29.85 in1.0 miVariable3.5 mph0.01 inSnowLight Snow
10:43 PM10.0 °F3.9 °F76 %29.86 in3.0 miNorth (10°)5.8 mph0.01 inSnowLight Snow
10:55 PM10.0 °F3.0 °F73 %29.90 in4.0 miNE (40°)3.5 mph0.01 inSnowLight Snow
11:10 PM10.0 °F3.9 °F76 %29.85 in2.0 miENE (60°)3.5 mph0.00 inSnowLight Snow
11:18 PM10.0 °F3.9 °F76 %29.85 in1.5 miCalm0.00 inSnowLight Snow
11:28 PM9.0 °F3.9 °F80 %29.85 in1.0 miCalm0.00 inSnowLight Snow
11:43 PM9.0 °F3.0 °F77 %29.85 in2.0 miNorth (360°)3.5 mph0.01 inSnowLight Snow
11:51 PM8.6 °F3.2 °F79 %29.86 in1.8 miNNE (20°)4.6 mph0.01 inSnowLight Snow
11:55 PM9.0 °F3.0 °F77 %29.91 in1.5 miNE (40°)6.9 mph0.01 inSnowLight Snow
Hourly data recorded from KANJ, located miles away from Sault Ste. Marie, Michigan







STORIES FROM OUR PARTNERS